Welcome to the New NWS' Forecast!
Most changes are behind the scenes, but click here for differences you might notice.

Regional Weather Roundup (RWR)

Issued by Gray - Portland, ME (GYX)

                            
000
ASUS41 KGYX 161810
RWRGYX
WEATHER ROUNDUP FOR MAINE AND NEW HAMPSHIRE
NATIONAL WEATHER SERVICE GRAY ME
200 PM EDT TUE OCT 16 2018

MEZ002-005-006-010-012-015-018-020-021-024-026-027-029-161900-
MAINE
  
CITY           SKY/WX    TMP DP  RH WIND       PRES   REMARKS
PORTLAND       FAIR      56  30  37 W16G23    29.91F                  
6HR MIN TEMP:  45; 6HR MAX TEMP:  56;                                

SANFORD        FAIR      55  29  36 NW16      29.94S                  
BAR HARBOR     FAIR      52  31  44 W9G20     29.84S                  
WISCASSET      FAIR      55  30  38 NW8G20    29.90F                  
6HR MIN TEMP:  45; 6HR MAX TEMP:  55;                                

ROCKLAND       FAIR      53  31  42 W15       29.87F                  
FRYEBURG       FAIR      54  25  32 NW13G23   29.92S                  
6HR MIN TEMP:  44; 6HR MAX TEMP:  54;                                

LEWISTONAUBURN FAIR      53  28  38 NW15G21   29.90F                  
AUGUSTA        FAIR      52  28  39 W10G31    29.88F                  
6HR MIN TEMP:  43; 6HR MAX TEMP:  52;                                

WATERVILLE     FAIR      52  30  43 W15G23    29.86S                  
BANGOR         FAIR      53  28  38 W12G21    29.84F                  
6HR MIN TEMP:  44; 6HR MAX TEMP:  53; 6HR PCP: TRACE;                

GREENVILLE       N/A     42  26  53 W13G33    29.80R                  
6HR MIN TEMP:  37; 6HR MAX TEMP:  42;                                

MILLINOCKET    FAIR      48  27  44 W16G26    29.82R                  
6HR MIN TEMP:  43; 6HR MAX TEMP:  48;                                

HOULTON        FAIR      49  30  48 W15G23    29.71R                  
6HR MIN TEMP:  41; 6HR MAX TEMP:  49;                                

PRESQUE ISLE   PTSUNNY   47  28  47 W17G24    29.70R                  
6HR MIN TEMP:  40; 6HR MAX TEMP:  47;                                

FRENCHVILLE    FAIR      47  24  40 W20G33    29.65R                  
6HR MIN TEMP:  39; 6HR MAX TEMP:  48; 6HR PCP: TRACE;                

CARIBOU        FAIR      46  27  47 W14G26    29.68R                  
6HR MIN TEMP:  40; 6HR MAX TEMP:  49;                                

$$

NHZ002-005-008-009-011-012-014-161900-
NEW HAMPSHIRE
  
CITY           SKY/WX    TMP DP  RH WIND       PRES   REMARKS
PORTSMOUTH     MOSUNNY   57  29  35 W10G20    29.94F                  
ROCHESTER      FAIR      55  29  36 NW15G23   29.94F                  
6HR MIN TEMP:  43; 6HR MAX TEMP:  55;                                

NASHUA         FAIR      55  29  36 W13G25    29.99F                  
MANCHESTER     FAIR      56  27  32 W12G22    29.96F                  
6HR MIN TEMP:  45; 6HR MAX TEMP:  56;                                

CONCORD        FAIR      55  29  36 W15G24    29.96F                  
6HR MIN TEMP:  43; 6HR MAX TEMP:  55;                                

LACONIA        FAIR      53  28  38 NW13G21   29.94F                  
PLYMOUTH       FAIR      53  25  33 W12G21    29.94F                  
BERLIN         FAIR      48  28  46 VRB7G23   29.90F                  
6HR MIN TEMP:  40; 6HR MAX TEMP:  49;                                

WHITEFIELD     CLOUDY    49  29  46 W15G22    29.94F                  
6HR MIN TEMP:  40; 6HR MAX TEMP:  50;                                

JAFFREY        FAIR      50  30  46 W10G23    29.99F                  
6HR MIN TEMP:  40; 6HR MAX TEMP:  51;                                

KEENE          PTSUNNY   53  31  42 SW14G20   30.00F                  
LEBANON        FAIR      54  28  36 W9        29.97F                  
6HR MIN TEMP:  43; 6HR MAX TEMP:  54;                                

MT WASHINGTON  FOG       19  19 100 W64G75      N/A  VSB 1/16WCI  -6  
6HR MIN TEMP:  16; 6HR MAX TEMP:  20;                                

$$

VTZ005-007-008-161900-
VERMONT
  
CITY           SKY/WX    TMP DP  RH WIND       PRES   REMARKS
ST JOHNSBURY     N/A     48  28  46 MISG      29.95F                  
MONTPELIER     FAIR      47  28  47 W14G24    30.00F                  
BURLINGTON     PTSUNNY   51  29  42 NW12      30.00F                  
$$

MAZ007-012-024-CTZ003-RIZ002-NYZ038-NYZ072-161900-
SOUTHERN NEW ENGLAND AND NY
  
CITY           SKY/WX    TMP DP  RH WIND       PRES   REMARKS
BOSTON         FAIR      58  30  34 W14G22    29.99F                  
WORCESTER      FAIR      50  32  50 W14G24    30.00F                  
NANTUCKET      FAIR      55  36  48 W13       30.03S                  
PROVIDENCE     FAIR      57  35  43 W9G20     30.02F                  
HARTFORD       FAIR      57  32  38 W16       30.04F                  
ALBANY         PTSUNNY   52  34  50 NW13G21   30.07F                  
NEW YORK CITY  PTSUNNY   56  28  34 W9        30.09F                  
$$

ANZ081-ANZ082-ANZ150-NHZ014-MEZ023>029-161900-
COASTAL MARINE OBSERVATIONS
  
STATION/POSITION TIME  TEMP    WIND        PRES    WAVE
                       AIR SEA DIR/SP/G            HT/PER
                 (UTC) (F)     (DEG/KT/KT) (MB)    (FT/S)
MOUNT DESERT ROC 1800   50     260/ 20/ 24 1011.2S
MATINICUS ROCK   1700   51     270/ 24/ 27 1011.9R
ISLE OF SHOALS   1700   52     280/ 18/ 20 1013.9F
JEFFREYS LEDGE   1706      57                N/A     4/ 5
$$

.............KEY..............
   WCI - WIND CHILL
   TC  - TEMPERATURE IN CELSIUS
   VSB - VISIBILITY IN MILES
   HX  - HEAT INDEX
   FAIR- INDICATES FEW OR NO CLOUDS BELOW 12,000 FT, WITH NO 
         SIGNIFICANT WEATHER AND/OR OBSTRUCTIONS TO VISIBILITY.